Home   Weather   Saguenay   Past weeks

Flag for Canada Past Weather in Saguenay, Quebec, Canada — Yesterday and Last 2 Weeks

Now
34 °F

Passing clouds.


Feels Like: 34 °F
Forecast: 35 / 63 °F
Wind: 2 mph from South

Location: Bagotville

Current Time: Sep 30, 2016 at 7:52:19 AM

Latest Report: Sep 30, 2016 at 7:00 AM


Visibility: 25 mi

Pressure: 30.62 "Hg

Humidity: 93%

Dew Point: 32 °F

Location of SaguenayLocation

Past Weather in Saguenay — Graph

°F

Saguenay Temperature Yesterday

Maximum temperature yesterday: 61 °F (at 3:00 PM)
Minimum temperature yesterday: 32 °F (at 6:00 AM)
Average temperature yesterday: 46 °F

High & Low Weather Summary for the Past Weeks

 TemperatureHumidityPressure
High73 °F (Sep 20, 3:00 PM)100% (Sep 18, 2:00 AM)30.66 "Hg (Sep 18, 2:00 AM)
Low30 °F (Sep 30, 6:00 AM)27% (Sep 29, 3:00 PM)29.76 "Hg (Sep 18, 3:00 AM)
Average52 °F77%30.13 "Hg
* Reported Sep 15 6:00 AM — Sep 30 6:00 AM, Saguenay, Weather by CustomWeather, © 2016

Note: Actual official high and low records may vary slightly from our data, if they occured in-between our weather recording intervals... More about our weather records

Advertising

Saguenay Weather History for the Previous 24 Hours

Scroll right to see more
 ConditionsComfort  
Time TempWeatherWind HumidityBarometerVisibility
6:00 AM
Fri, Sep 30
30 °FPassing clouds.5 mph100%30.60 "Hg25 mi
5:00 AM34 °FClear.2 mph100%30.60 "Hg25 mi
4:00 AM32 °FClear.3 mph93%30.59 "Hg25 mi
3:00 AM36 °FClear.3 mph93%30.59 "Hg25 mi
2:00 AM36 °FClear.No wind93%30.60 "Hg25 mi
1:00 AM39 °FClear.2 mph93%30.60 "Hg25 mi
12:00 AM39 °FClear.5 mph93%30.60 "Hg25 mi
11:00 PM
Thu, Sep 29
39 °FClear.3 mph93%30.61 "Hg25 mi
10:00 PM41 °FClear.5 mph81%30.61 "Hg25 mi
9:00 PM41 °FClear.2 mph87%30.61 "Hg25 mi
8:00 PM45 °FClear.3 mph81%30.61 "Hg25 mi
7:00 PM50 °FPassing clouds.2 mph62%30.60 "Hg25 mi
6:00 PM59 °FPassing clouds.2 mph36%30.59 "Hg25 mi
5:00 PM61 °FPassing clouds.2 mph31%30.59 "Hg25 mi
4:00 PM61 °FPassing clouds.No wind29%30.59 "Hg25 mi
3:00 PM61 °FPassing clouds.2 mph27%30.60 "Hg25 mi
2:00 PM59 °FPassing clouds.5 mph42%30.62 "Hg25 mi
1:00 PM57 °FPassing clouds.7 mph51%30.63 "Hg25 mi
12:00 PM55 °FPassing clouds.5 mph51%30.64 "Hg25 mi
11:00 AM52 °FPassing clouds.5 mph62%30.66 "Hg25 mi
10:00 AM48 °FPassing clouds.2 mph71%30.66 "Hg25 mi
9:00 AM41 °FPassing clouds.2 mph81%30.65 "Hg25 mi
8:00 AM36 °FPassing clouds.3 mph93%30.62 "Hg25 mi
7:00 AM32 °FSunny.No wind93%30.62 "Hg25 mi
Weather by CustomWeather, © 2016

See weather overviewHow to use our weather pages